TimeCST,TemperatureF,Dew PointF,Humidity,Sea Level PressureIn,VisibilityMPH,Wind Direction,Wind SpeedMPH,Gust SpeedMPH,PrecipitationIn,Events,Conditions,WindDirDegrees,DateUTC
12:11 AM,53.6,50.0,88,29.82,10.0,North,9.2,19.6,0.00,,Overcast,350,2012-12-10 06:11:00
12:53 AM,53.1,48.9,86,29.81,10.0,North,11.5,19.6,0.00,,Overcast,350,2012-12-10 06:53:00
1:03 AM,51.8,48.2,88,29.82,10.0,North,12.7,20.7,N/A,,Overcast,350,2012-12-10 07:03:00
1:53 AM,50.0,48.0,93,29.78,5.0,NNE,17.3,20.7,0.03,Rain,Light Rain,20,2012-12-10 07:53:00
2:53 AM,48.0,46.0,93,29.82,8.0,North,11.5,23.0,0.03,,Overcast,350,2012-12-10 08:53:00
3:02 AM,48.2,46.4,93,29.83,7.0,North,13.8,23.0,N/A,,Overcast,360,2012-12-10 09:02:00
3:39 AM,46.4,44.6,93,29.83,9.0,North,12.7,21.9,N/A,,Overcast,360,2012-12-10 09:39:00
3:53 AM,46.9,44.1,90,29.84,10.0,North,9.2,-,N/A,,Overcast,360,2012-12-10 09:53:00
4:06 AM,46.4,44.6,93,29.84,10.0,North,9.2,-,0.00,Rain,Light Rain,350,2012-12-10 10:06:00
4:53 AM,46.0,42.1,86,29.83,10.0,North,12.7,-,0.00,,Overcast,10,2012-12-10 10:53:00
5:53 AM,46.9,41.0,80,29.85,10.0,North,8.1,-,N/A,,Overcast,360,2012-12-10 11:53:00
6:53 AM,43.0,39.0,86,29.85,10.0,North,10.4,17.3,0.00,,Overcast,350,2012-12-10 12:53:00
7:53 AM,42.1,37.0,82,29.88,10.0,NNW,10.4,21.9,0.00,,Overcast,330,2012-12-10 13:53:00
8:36 AM,39.2,32.0,75,29.93,10.0,NNW,13.8,26.5,N/A,,Overcast,340,2012-12-10 14:36:00
8:53 AM,37.9,30.9,76,29.95,10.0,NNW,15.0,27.6,N/A,,Overcast,330,2012-12-10 14:53:00
9:53 AM,37.0,30.0,76,29.94,10.0,NNW,11.5,18.4,N/A,,Overcast,340,2012-12-10 15:53:00
10:53 AM,39.0,30.0,70,29.96,10.0,NNW,15.0,21.9,N/A,,Scattered Clouds,340,2012-12-10 16:53:00
11:53 AM,39.9,30.9,70,29.95,10.0,North,12.7,19.6,N/A,,Clear,350,2012-12-10 17:53:00
12:53 PM,39.9,28.9,65,29.93,10.0,NNW,9.2,20.7,N/A,,Partly Cloudy,340,2012-12-10 18:53:00
1:53 PM,37.9,28.0,68,29.94,10.0,NW,12.7,20.7,N/A,,Overcast,320,2012-12-10 19:53:00
2:44 PM,37.4,28.4,70,29.95,10.0,NW,10.4,18.4,N/A,,Mostly Cloudy,320,2012-12-10 20:44:00
2:53 PM,37.0,28.0,70,29.96,10.0,NNW,9.2,19.6,N/A,,Mostly Cloudy,330,2012-12-10 20:53:00
3:53 PM,36.0,26.1,67,29.99,10.0,NW,11.5,19.6,N/A,,Mostly Cloudy,320,2012-12-10 21:53:00
4:53 PM,36.0,26.1,67,30.01,10.0,North,10.4,-,N/A,,Mostly Cloudy,350,2012-12-10 22:53:00
5:30 PM,35.6,26.6,70,30.00,10.0,NNW,9.2,-,N/A,,Scattered Clouds,340,2012-12-10 23:30:00
5:53 PM,35.1,26.1,70,30.01,10.0,NNW,8.1,-,N/A,,Partly Cloudy,340,2012-12-10 23:53:00
6:53 PM,36.0,27.0,70,30.05,10.0,North,8.1,-,N/A,,Overcast,350,2012-12-11 00:53:00
7:53 PM,33.1,24.1,70,30.06,10.0,North,8.1,-,N/A,,Clear,350,2012-12-11 01:53:00
8:53 PM,32.0,25.0,75,30.06,10.0,NNW,6.9,-,N/A,,Mostly Cloudy,340,2012-12-11 02:53:00
9:53 PM,33.1,24.1,70,30.09,10.0,North,9.2,-,N/A,,Overcast,350,2012-12-11 03:53:00
10:53 PM,33.1,24.1,70,30.10,10.0,North,10.4,17.3,N/A,,Overcast,360,2012-12-11 04:53:00
11:53 PM,32.0,25.0,75,30.11,10.0,North,9.2,-,N/A,,Overcast,350,2012-12-11 05:53:00